Weather History for KOTM - March, 2014

Change the Weather History Date:

Thursday, March 6, 2014

  Actual Average Record
Temperature  
Mean Temperature 27 °F 35 °F  
Max Temperature 36 °F 44 °F 73 °F (2000)
Min Temperature 18 °F 25 °F -11 °F (1960)
Degree Days  
Heating Degree Days 38 30  
Month to date heating degree days 306 189  
Since 1 July heating degree days 5818 5074  
Cooling Degree Days 0 0  
Month to date cooling degree days 0 0  
Year to date cooling degree days 0 0  
Moisture  
Dew Point 19 °F    
Average Humidity 76    
Maximum Humidity 92    
Minimum Humidity 59    
Precipitation  
Precipitation 0.00 in 0.06 in 1.10 in (1959)
Month to date precipitation T 0.40  
Year to date precipitation 1.33 2.58  
Sea Level Pressure  
Sea Level Pressure 30.21 in    
Wind  
Wind Speed 9 mph (SE)    
Max Wind Speed 15 mph    
Max Gust Speed 18 mph    
Visibility 7 miles    
Events      
T = Trace of Precipitation, MM = Missing Value Source: NWS Daily Summary

Daily Weather History Graph

Daily Weather History Graph

Search for Another Location

Airport or City:

Trip Planner

Search our weather history database for the weather conditions in past years. The results will help you decide how hot, cold, wet, or windy it might be!

Date:

Astronomy

Mar. 06, 2014 Rise Set
Actual Time 6:36 AM CST 6:06 PM CST
Civil Twilight 6:08 AM CST 6:34 PM CST
Nautical Twilight 5:36 AM CST 7:05 PM CST
Astronomical Twilight 5:04 AM CST 7:37 PM CST
Moon 9:41 AM CST (3/6) No Moon Set
Length of Visible Light 12h 25m
Length of Day
11h 30m
Waxing Crescent, 32% of the Moon is Illuminated
Mar 6
Waxing Crescent
Mar 8
First Quarter
Mar 16
Full
Mar 23
Last Quarter
Mar 30
New

Hourly Weather History & Observations

Time (CST) Temp. Windchill Dew Point Humidity Pressure Visibility Wind Dir Wind Speed Gust Speed Precip Events Conditions
12:53 AM 19.0 °F 8.2 °F 15.1 °F 85% 30.38 in 10.0 mi East 9.2 mph - N/A   Overcast
1:53 AM 18.0 °F 8.7 °F 15.1 °F 88% 30.37 in 10.0 mi East 6.9 mph - N/A   Overcast
2:18 AM 18.0 °F 6.9 °F 14.0 °F 84% 30.31 in 10.0 mi East 9.2 mph - N/A   Overcast
2:53 AM 18.0 °F 7.7 °F 15.1 °F 88% 30.35 in 10.0 mi East 8.1 mph - N/A   Overcast
3:53 AM 18.0 °F 9.8 °F 15.1 °F 88% 30.35 in 8.0 mi ENE 5.8 mph - N/A   Overcast
4:53 AM 19.0 °F 9.0 °F 15.1 °F 85% 30.34 in 7.0 mi East 8.1 mph - N/A   Overcast
5:53 AM 18.0 °F 7.7 °F 15.1 °F 88% 30.33 in 6.0 mi ESE 8.1 mph - N/A   Overcast
6:53 AM 18.0 °F 8.7 °F 15.1 °F 88% 30.32 in 3.0 mi ESE 6.9 mph - N/A   Overcast
7:13 AM 18.0 °F 7.7 °F 15.1 °F 88% 30.27 in 2.5 mi ESE 8.1 mph - N/A   Overcast
7:45 AM 18.0 °F 6.9 °F 15.1 °F 88% 30.28 in 2.5 mi SE 9.2 mph - N/A   Overcast
7:53 AM 18.0 °F 6.1 °F 15.1 °F 88% 30.32 in 2.5 mi SE 10.4 mph - N/A   Overcast
8:49 AM 17.6 °F 7.3 °F 15.8 °F 93% 30.26 in 3.0 mi ESE 8.1 mph - N/A   Overcast
8:53 AM 18.0 °F 6.1 °F 15.1 °F 88% 30.30 in 3.0 mi SE 10.4 mph - N/A   Overcast
9:53 AM 19.0 °F 9.0 °F 16.0 °F 88% 30.30 in 5.0 mi ESE 8.1 mph - N/A   Overcast
10:38 AM 21.0 °F 12.4 °F 17.1 °F 85% 30.24 in 6.0 mi ESE 6.9 mph - N/A   Scattered Clouds
10:53 AM 21.9 °F 15.7 °F 18.0 °F 85% 30.28 in 7.0 mi ESE 4.6 mph - N/A   Clear
11:53 AM 25.0 °F 15.5 °F 19.0 °F 78% 30.26 in 8.0 mi South 9.2 mph - N/A   Clear
12:53 PM 28.9 °F 21.1 °F 21.0 °F 72% 30.20 in 9.0 mi South 8.1 mph - N/A   Clear
1:53 PM 32.0 °F 26.4 °F 21.9 °F 66% 30.18 in 9.0 mi South 5.8 mph - N/A   Clear
2:53 PM 35.1 °F 27.9 °F 23.0 °F 61% 30.14 in 9.0 mi SSE 9.2 mph - N/A   Clear
3:53 PM 36.0 °F 29.6 °F 25.0 °F 64% 30.12 in 9.0 mi SSE 8.1 mph - N/A   Clear
4:53 PM 36.0 °F 27.5 °F 25.0 °F 64% 30.09 in 7.0 mi SSE 12.7 mph - N/A   Clear
5:53 PM 34.0 °F 27.2 °F 25.0 °F 70% 30.07 in 7.0 mi SSE 8.1 mph - N/A   Clear
6:53 PM 32.0 °F 24.8 °F 25.0 °F 75% 30.05 in 7.0 mi SE 8.1 mph - N/A   Clear
7:53 PM 28.0 °F 20.8 °F 24.1 °F 85% 30.04 in 4.0 mi SE 6.9 mph - N/A   Clear
8:53 PM 33.1 °F 24.4 °F 25.0 °F 72% 30.03 in 6.0 mi SSE 11.5 mph - N/A   Haze
9:53 PM 32.0 °F 23.6 °F 24.1 °F 73% 30.03 in 7.0 mi SSE 10.4 mph - N/A   Clear
10:53 PM 32.0 °F 22.5 °F 24.1 °F 73% 30.01 in 7.0 mi South 12.7 mph - N/A   Clear
11:53 PM 32.0 °F 22.5 °F 24.1 °F 73% 29.99 in 7.0 mi SSE 12.7 mph - N/A   Clear